TimeCST,TemperatureF,Dew PointF,Humidity,Sea Level PressureIn,VisibilityMPH,Wind Direction,Wind SpeedMPH,Gust SpeedMPH,PrecipitationIn,Events,Conditions,WindDirDegrees,DateUTC
12:13 AM,8.8,5.2,85,30.02,0.2,Calm,Calm,-,N/A,Fog,Light Freezing Fog,0,2013-02-26 06:13:00
12:32 AM,9.0,5.2,85,30.03,0.2,Calm,Calm,-,N/A,Fog,Light Freezing Fog,0,2013-02-26 06:32:00
12:53 AM,9.1,5.7,86,30.02,0.2,Calm,Calm,-,N/A,Fog,Light Freezing Fog,0,2013-02-26 06:53:00
1:12 AM,9.1,5.5,85,30.01,0.2,Calm,Calm,-,N/A,Fog,Light Freezing Fog,0,2013-02-26 07:12:00
1:33 AM,9.0,5.4,85,30.01,0.2,Calm,Calm,-,N/A,Fog,Light Freezing Fog,0,2013-02-26 07:33:00
1:53 AM,9.5,5.9,85,30.01,0.2,Calm,Calm,-,N/A,Fog,Light Freezing Fog,0,2013-02-26 07:53:00
2:12 AM,9.3,5.7,85,30.00,0.2,Calm,Calm,-,N/A,Fog,Light Freezing Fog,0,2013-02-26 08:12:00
2:33 AM,10.2,6.8,86,30.00,0.2,Calm,Calm,-,N/A,Fog,Light Freezing Fog,0,2013-02-26 08:33:00
2:53 AM,9.5,5.7,85,29.99,0.2,Calm,Calm,-,N/A,Fog,Light Freezing Fog,0,2013-02-26 08:53:00
3:13 AM,9.5,5.9,85,29.99,0.5,Calm,Calm,-,N/A,Fog,Light Freezing Fog,0,2013-02-26 09:13:00
3:32 AM,9.5,5.9,85,29.98,0.2,Calm,Calm,-,N/A,Fog,Light Freezing Fog,0,2013-02-26 09:32:00
3:53 AM,9.3,5.7,85,29.96,0.8,Calm,Calm,-,N/A,,Overcast,0,2013-02-26 09:53:00
4:13 AM,8.8,5.0,85,29.96,0.8,Calm,Calm,-,N/A,,Overcast,0,2013-02-26 10:13:00
4:32 AM,9.1,5.5,85,29.95,0.2,Calm,Calm,-,N/A,Fog,Light Freezing Fog,0,2013-02-26 10:32:00
4:53 AM,8.6,5.0,85,29.96,0.2,Calm,Calm,-,N/A,Fog,Light Freezing Fog,0,2013-02-26 10:53:00
5:13 AM,7.7,3.9,85,29.95,0.2,Calm,Calm,-,N/A,Fog,Light Freezing Fog,0,2013-02-26 11:13:00
5:32 AM,6.8,2.7,83,29.95,0.2,Calm,Calm,-,N/A,Fog,Light Freezing Fog,0,2013-02-26 11:32:00
5:53 AM,9.0,5.7,87,29.96,2.5,Calm,Calm,-,N/A,,Clear,0,2013-02-26 11:53:00
6:13 AM,8.6,4.5,83,29.96,2.5,Calm,Calm,-,N/A,,Clear,0,2013-02-26 12:13:00
6:32 AM,7.7,4.1,85,29.96,4.0,Calm,Calm,-,N/A,,Clear,0,2013-02-26 12:32:00
6:53 AM,8.6,5.0,85,29.95,3.0,Calm,Calm,-,N/A,,Clear,0,2013-02-26 12:53:00
7:13 AM,8.8,5.2,85,29.96,2.5,Calm,Calm,-,N/A,,Mostly Cloudy,0,2013-02-26 13:13:00
7:32 AM,10.2,7.0,87,29.95,3.0,Calm,Calm,-,N/A,,Overcast,0,2013-02-26 13:32:00
7:53 AM,12.7,9.3,86,29.95,3.0,Calm,Calm,-,N/A,,Overcast,0,2013-02-26 13:53:00
8:13 AM,14.0,10.6,86,29.95,2.5,Calm,Calm,-,N/A,,Overcast,0,2013-02-26 14:13:00
8:32 AM,14.2,10.9,87,29.95,2.5,Calm,Calm,-,N/A,,Mostly Cloudy,0,2013-02-26 14:32:00
8:53 AM,16.7,13.6,88,29.95,2.5,Calm,Calm,-,N/A,,Overcast,0,2013-02-26 14:53:00
9:13 AM,18.9,16.0,89,29.95,2.0,Calm,Calm,-,N/A,,Overcast,0,2013-02-26 15:13:00
9:32 AM,20.3,17.6,89,29.95,2.0,Calm,Calm,-,N/A,,Overcast,0,2013-02-26 15:32:00
9:53 AM,22.6,20.1,90,29.94,2.5,Calm,Calm,-,N/A,,Overcast,0,2013-02-26 15:53:00
10:13 AM,25.0,22.5,90,29.95,2.5,NNE,4.6,-,N/A,,Scattered Clouds,20,2013-02-26 16:13:00
10:32 AM,26.8,24.6,92,29.94,3.0,NNE,5.8,-,N/A,,Clear,20,2013-02-26 16:32:00
10:53 AM,28.4,26.6,93,29.94,4.0,NNE,8.1,-,N/A,,Scattered Clouds,20,2013-02-26 16:53:00
11:13 AM,28.9,27.1,93,29.93,4.0,NNE,9.2,-,N/A,,Scattered Clouds,20,2013-02-26 17:13:00
11:32 AM,29.8,28.0,93,29.92,5.0,North,9.2,-,N/A,,Scattered Clouds,10,2013-02-26 17:32:00
11:53 AM,30.6,28.8,93,29.91,5.0,North,9.2,-,N/A,,Scattered Clouds,360,2013-02-26 17:53:00
12:12 PM,31.3,28.8,90,29.89,5.0,North,11.5,-,N/A,,Clear,10,2013-02-26 18:12:00
12:33 PM,32.0,27.1,82,29.89,5.0,North,12.7,-,N/A,,Haze,360,2013-02-26 18:33:00
12:52 PM,32.9,26.6,78,29.88,5.0,North,12.7,-,N/A,,Haze,360,2013-02-26 18:52:00
1:12 PM,33.6,26.4,75,29.88,7.0,North,11.5,-,N/A,,Clear,10,2013-02-26 19:12:00
1:33 PM,34.7,26.4,72,29.86,7.0,North,13.8,-,N/A,,Clear,10,2013-02-26 19:33:00
1:52 PM,34.7,26.4,72,29.86,7.0,North,13.8,-,N/A,,Clear,10,2013-02-26 19:52:00
2:13 PM,35.1,26.8,72,29.85,7.0,NNE,15.0,-,N/A,,Scattered Clouds,20,2013-02-26 20:13:00
2:33 PM,35.1,26.1,70,29.85,7.0,ENE,17.3,20.7,N/A,,Scattered Clouds,60,2013-02-26 20:33:00
2:52 PM,34.7,25.2,68,29.86,10.0,ENE,13.8,-,N/A,,Scattered Clouds,60,2013-02-26 20:52:00
3:13 PM,34.5,25.5,70,29.85,10.0,NE,10.4,-,N/A,,Overcast,40,2013-02-26 21:13:00
3:33 PM,34.7,25.5,69,29.85,10.0,NNE,10.4,-,N/A,,Overcast,30,2013-02-26 21:33:00
3:52 PM,34.3,26.4,73,29.84,10.0,NNE,8.1,-,N/A,,Overcast,20,2013-02-26 21:52:00
4:13 PM,34.5,26.6,73,29.84,10.0,North,12.7,-,N/A,,Mostly Cloudy,360,2013-02-26 22:13:00
4:32 PM,34.3,26.6,73,29.83,7.0,North,13.8,-,N/A,,Scattered Clouds,360,2013-02-26 22:32:00
4:53 PM,34.0,26.2,73,29.83,7.0,North,15.0,-,N/A,,Clear,360,2013-02-26 22:53:00
5:13 PM,33.8,26.2,74,29.84,7.0,North,11.5,-,N/A,,Clear,350,2013-02-26 23:13:00
5:32 PM,33.4,26.2,75,29.83,10.0,North,11.5,-,N/A,,Clear,360,2013-02-26 23:32:00
5:53 PM,33.6,26.1,74,29.83,10.0,North,13.8,-,N/A,,Clear,350,2013-02-26 23:53:00
6:13 PM,33.8,26.1,73,29.83,10.0,North,13.8,-,N/A,,Clear,350,2013-02-27 00:13:00
6:32 PM,34.0,26.2,73,29.83,10.0,North,15.0,-,N/A,,Clear,350,2013-02-27 00:32:00
6:53 PM,33.8,25.9,73,29.83,10.0,North,11.5,-,N/A,,Clear,350,2013-02-27 00:53:00
7:13 PM,33.1,25.7,74,29.83,10.0,North,12.7,-,N/A,,Clear,350,2013-02-27 01:13:00
7:32 PM,33.6,25.7,73,29.83,10.0,North,12.7,-,N/A,,Clear,360,2013-02-27 01:32:00
7:53 PM,33.8,25.7,72,29.83,10.0,North,15.0,-,N/A,,Clear,360,2013-02-27 01:53:00
8:13 PM,33.6,25.7,73,29.83,10.0,North,12.7,-,N/A,,Clear,360,2013-02-27 02:13:00
8:32 PM,33.1,25.5,74,29.83,10.0,NNE,13.8,-,N/A,,Clear,20,2013-02-27 02:32:00
8:53 PM,32.2,25.0,75,29.83,10.0,NNE,12.7,-,N/A,,Clear,20,2013-02-27 02:53:00
9:13 PM,32.0,24.6,74,29.83,10.0,NNE,11.5,-,N/A,,Clear,20,2013-02-27 03:13:00
9:32 PM,31.5,24.6,76,29.84,10.0,NNE,10.4,-,N/A,,Clear,20,2013-02-27 03:32:00
9:53 PM,31.8,25.3,77,29.83,10.0,North,12.7,-,N/A,,Clear,10,2013-02-27 03:53:00
10:13 PM,31.8,25.2,76,29.83,10.0,NNE,13.8,-,N/A,,Clear,20,2013-02-27 04:13:00
10:32 PM,31.3,24.4,76,29.83,10.0,NNE,11.5,-,N/A,,Clear,20,2013-02-27 04:32:00
10:53 PM,31.1,24.1,75,29.83,10.0,North,13.8,-,N/A,,Clear,10,2013-02-27 04:53:00
11:12 PM,30.2,24.1,78,29.83,10.0,North,11.5,-,N/A,,Clear,10,2013-02-27 05:12:00
11:33 PM,30.2,24.6,80,29.83,10.0,North,11.5,-,N/A,,Clear,10,2013-02-27 05:33:00
11:53 PM,30.0,24.3,79,29.83,10.0,North,10.4,-,N/A,,Clear,10,2013-02-27 05:53:00